Location: *
(51.4660°N, 0.3360°W)
Time: 20:59:27
(UTC+00:00)

Cosmos 1939 Rocket - Pass Details

Date: 19 September 2019
Orbit: 534 x 583 km, 97.4° (Epoch: 17 October)

Event Time Altitude Azimuth Distance (km) Brightness Sun altitude
Rises 18:40:40 0° 162° (SSE) 2,678 6.0 -6.0°
Reaches altitude 10° 18:42:47 10° 161° (SSE) 1,789 5.1 -6.3°
Maximum altitude 18:46:38 79° 74° (ENE) 552 2.7 -6.9°
Drops below altitude 10° 18:50:31 10° 349° (N) 1,804 5.8 -7.5°
Sets 18:52:39 0° 348° (NNW) 2,703 6.7 -7.8°
